Main page
METAR-TAF:

METAR-TAF

Airports :

Frederick Regional Airport

Frederick, Oklahoma, United States

latitude: 34-20-40N, longitude: 098-58-59W, elevation: 1253 ft

Current weather observation

The report was made 16 minutes ago, at 05:53 UTC
Wind 9 mph from the South/Southeast
Temperature 68°F
Humidity 94%
Pressure 29.84 in. Hg
Visibility: 10 miles
Clear sky

METAR: KFDR 250553Z AUTO 15008KT 10SM CLR 20/19 A2984 RMK AO2 SLP090 T02000189 10261 20200 402780200 50000 $

Time: 01:09 (06:09 UTC)


TAF: missing

Weather observations and forecasts of more than 4000 airports (METAR and TAF reports).

The available stations are represented by yellow and red dots on the map.

Hover mouse over dot to see the name of the station.

Then click to see weather observations and forecasts.

To change the map : click on the green buttons with a black cross to zoom in, on the green button with a dash to zoom out, or on the green arrows for adjacent maps.


METAR-TAF: